[[{"header":{"parameterUnit":"m.s-1","parameterCategory":2,"la1":30.2991,"la2":30.254,"lo1":-89.0895,"lo2":-89.0444,"dy":0.0017,"dx":0.0017,"nx":28,"ny":28,"refTime":"2025-08-14T21:00:00:Z","depth":"0","parameterNumber":2,"parameterNumberName":"U-component_of_CURRENTS"},"data":[0,0,0,0,0,0,0,0,0,0,0,0,0,0,0,0,0,0,0,0,0,0,0,0,0,0,0,0,0,0,0,0,0,0,0,0,0,0,0,0,0,0,0,0,0,0,0,0,0,0,0,0,0,0,0,0,0,0,0.224,0.2239,0,0.2179,0.2178,0.2177,0.2165,0.2165,0.2166,0.2166,0.2151,0.215,0.2149,0,0,0,0,0,0,0,0,0,0,0,0,0,0.2313,0.2312,0.224,0.2239,0.2238,0.2179,0.2178,0.2177,0.2165,0.2165,0.2166,0.2167,0.2151,0.215,0.2149,0,0,0,0,0,0,0,0,0,0,0,0,0,0.2269,0.2312,0.224,0.2226,0.2224,0.2179,0.2178,0.2177,0.2165,0.2165,0.2166,0.2167,0.2151,0.215,0.2149,0.2123,0,0,0.2144,0.2144,0,0,0,0,0,0,0,0,0.2272,0.2266,0.2229,0.2227,0.2225,0.2181,0.2198,0.2162,0.2164,0.2186,0.2166,0.2167,0.2165,0.2163,0.2147,0.2123,0.2122,0.2144,0.2143,0.2143,0.2142,0,0,0,0,0,0,0,0.2275,0.2269,0.2215,0.2228,0.2225,0.2212,0.2207,0.2191,0.2172,0.2184,0.2183,0.2178,0.2164,0.2149,0.2147,0.2122,0.2144,0.2143,0.2142,0.2142,0.2119,0.2119,0,0,0,0,0,0,0.2285,0.2271,0.2216,0.2213,0.2252,0.221,0.2204,0.2193,0.2171,0.2168,0.2177,0.2178,0.2151,0.2149,0.2146,0.2143,0.2143,0.2142,0.2141,0.2118,0.2119,0.2119,0,0,0,0,0,0,0.2286,0.228,0.2219,0.2242,0.2233,0.2208,0.2196,0.2192,0.2177,0.2165,0.2164,0.2168,0.2151,0.2148,0.2138,0.2142,0.2141,0.214,0.2118,0.2118,0.2119,0.2118,0,0,0,0,0,0,0.2289,0.2281,0.2273,0.2242,0.2233,0.2191,0.2195,0.219,0.2173,0.2173,0.2156,0.2155,0.2152,0.214,0.2136,0.214,0.2139,0.2118,0.2118,0.2119,0.2118,0.2119,0.2119,0,0,0,0,0,0.2291,0.2272,0.2273,0.2266,0.2223,0.219,0.2183,0.2168,0.2172,0.2159,0.2156,0.2156,0.2141,0.2138,0.2134,0.2137,0.2118,0.2118,0.2119,0.2118,0.2119,0.2119,0,0,0,0,0,0,0.2291,0.2268,0.2268,0.2241,0.222,0.2188,0.2171,0.2165,0.2149,0.2153,0.2149,0.2147,0.2149,0.2138,0.2136,0.2134,0.2133,0.2133,0.2134,0.2134,0.2135,0.2144,0.2137,0,0,0,0,0,0.229,0.2274,0.2251,0.2229,0.2219,0.2197,0.2181,0.2172,0.2156,0.2149,0.2139,0.2137,0.2145,0.2136,0.2138,0.2119,0.2138,0.2123,0.2123,0.2124,0.213,0.2159,0.2163,0.2121,0.2121,0.2121,0,0,0.2281,0.2269,0.2257,0.2229,0.221,0.2187,0.2188,0.2162,0.215,0.215,0.213,0.2141,0.2145,0.214,0.2138,0.2129,0.2147,0.2124,0.2125,0.2131,0.216,0.2164,0.2168,0.2121,0.2121,0.2121,0,0,0.2252,0.2246,0.2222,0.2209,0.2186,0.2175,0.217,0.2141,0.2137,0.2117,0.2134,0.2145,0.2125,0.214,0.2144,0.2145,0.2159,0.2145,0.2139,0.2167,0.2171,0.2175,0.221,0.2217,0.2132,0.2132,0.2132,0,0.2241,0.2212,0.2209,0.2186,0.2175,0.2172,0.2146,0.2138,0.2112,0.2117,0.2112,0.2127,0.2129,0.2149,0.2153,0.2147,0.2167,0.2135,0.2168,0.2172,0.2176,0.2211,0.2219,0.2132,0.2132,0.2132,0.2132,0,0.2194,0.2176,0.216,0.2139,0.2129,0.2103,0.2102,0.2097,0.2097,0.2095,0.2114,0.2121,0.2133,0.2139,0.2143,0.2174,0.2182,0.2176,0.2167,0.218,0.2217,0.2225,0.2132,0.2132,0.2132,0.2132,0,0,0.2146,0.213,0.2123,0.2117,0.2104,0.2089,0.2087,0.2083,0.209,0.2085,0.2097,0.2119,0.2136,0.2144,0.2159,0.2179,0.2225,0.2184,0.2185,0.222,0.2296,0.2302,0.2311,0.2223,0.2224,0.2225,0.2313,0,0.2105,0.2066,0.2071,0.2042,0.2022,0.2041,0.2042,0.2051,0.2062,0.2073,0.2107,0.2125,0.2134,0.2147,0.217,0.2217,0.2245,0.2202,0.2277,0.2279,0.2284,0.232,0.2313,0.239,0.2321,0.2322,0.2323,0,0.2049,0.2036,0.2,0.2009,0.2004,0.1994,0.2014,0.2016,0.2051,0.2064,0.2094,0.2121,0.2166,0.2165,0.2249,0.2221,0.2261,0.2293,0.2296,0.2309,0.23,0.2365,0.2407,0.2279,0.2335,0.2334,0.2333,0,0.201,0.1987,0.1964,0.196,0.1965,0.1969,0.198,0.201,0.2024,0.2065,0.2077,0.2134,0.2161,0.2221,0.229,0.2271,0.2384,0.2362,0.241,0.2412,0.2424,0.2424,0.2353,0.2426,0.2426,0.2426,0.2425,0,0.1959,0.194,0.1945,0.193,0.1927,0.1944,0.1953,0.1975,0.2009,0.2026,0.2071,0.209,0.2174,0.2244,0.2304,0.2392,0.2398,0.2428,0.2439,0.2424,0.2422,0.2326,0.226,0.2429,0.2428,0.2427,0.2427,0,0.191,0.1909,0.1891,0.1899,0.1904,0.1904,0.1935,0.1949,0.1977,0.2001,0.2015,0.2073,0.2151,0.2248,0.2356,0.2406,0.2413,0.2522,0.2505,0.2512,0.2413,0.2349,0.2189,0.214,0.2581,0.2582,0.2582,0,0.1877,0.1859,0.1868,0.1875,0.1877,0.1885,0.1901,0.1932,0.1948,0.1983,0.1993,0.2067,0.2109,0.2279,0.24,0.2531,0.2414,0.2597,0.2553,0.2417,0.2353,0.2172,0.2129,0.2576,0.2577,0.2577,0.2577,0,0.1822,0.1829,0.1826,0.1845,0.1857,0.1871,0.1889,0.1893,0.1927,0.1938,0.196,0.1992,0.2138,0.2253,0.2431,0.252,0.2436,0.2607,0.2471,0.2353,0.2146,0.2102,0.2505,0.2581,0.2581,0.258,0.258,0.258,0.1792,0.1788,0.1801,0.1825,0.1842,0.1859,0.1853,0.1868,0.1878,0.1881,0.1925,0.1964,0.212,0.2349,0.2425,0.2513,0.2416,0.2481,0.2423,0.2254,0.2167,0.258,0.2655,0.2655,0.2656,0.2656,0.2656,0,0.1764,0.1772,0.1786,0.1812,0.1832,0.1846,0.1851,0.1832,0.182,0.1844,0.1858,0.1983,0.2108,0.2246,0.2408,0.235,0.2246,0.2267,0.2011,0.1991,0.2388,0.2348,0.2353,0.2353,0.2353,0.2353,0.2353,0.2353,0.1748,0.1757,0.1776,0.1806,0.1821,0.181,0.1803,0.1766,0.1767,0.1761,0.18,0.1848,0.1976,0.2049,0.2091,0.2089,0.1868,0.1776,0.1696,0.1978,0.1991,0.2004,0.1949,0.187,0.1869,0.1257,0.1252,0.1248]},{"header":{"parameterUnit":"m.s-1","parameterCategory":2,"la1":30.2991,"la2":30.254,"lo1":-89.0895,"lo2":-89.0444,"dy":0.0017,"dx":0.0017,"nx":28,"ny":28,"refTime":"2025-08-14T21:00:00:Z","depth":"0","parameterNumber":3,"parameterNumberName":"V-component_of_CURRENTS"},"data":[0,0,0,0,0,0,0,0,0,0,0,0,0,0,0,0,0,0,0,0,0,0,0,0,0,0,0,0,0,0,0,0,0,0,0,0,0,0,0,0,0,0,0,0,0,0,0,0,0,0,0,0,0,0,0,0,0,0,-0.0092,-0.0092,0,-0.0073,-0.0073,-0.0073,-0.0102,-0.0103,-0.0104,-0.0105,-0.0153,-0.0153,-0.0153,0,0,0,0,0,0,0,0,0,0,0,0,0,-0.0131,-0.0131,-0.0092,-0.0092,-0.0092,-0.0073,-0.0073,-0.0073,-0.0102,-0.0103,-0.0104,-0.0105,-0.0153,-0.0153,-0.0153,0,0,0,0,0,0,0,0,0,0,0,0,0,-0.0113,-0.013,-0.0092,-0.0104,-0.0105,-0.0073,-0.0073,-0.0073,-0.0101,-0.0103,-0.0104,-0.0106,-0.0153,-0.0153,-0.0153,-0.0125,0,0,-0.0155,-0.0155,0,0,0,0,0,0,0,0,-0.0114,-0.0112,-0.0103,-0.0103,-0.0104,-0.0092,-0.0105,-0.0094,-0.0101,-0.0102,-0.0105,-0.0107,-0.0138,-0.0139,-0.0131,-0.0127,-0.013,-0.0155,-0.0155,-0.0155,-0.0156,0,0,0,0,0,0,0,-0.0116,-0.0113,-0.0084,-0.0102,-0.0103,-0.0103,-0.0102,-0.0102,-0.0112,-0.0102,-0.0104,-0.0102,-0.0139,-0.013,-0.0133,-0.013,-0.0155,-0.0155,-0.0156,-0.0156,-0.0131,-0.013,0,0,0,0,0,0,-0.0118,-0.0114,-0.0085,-0.0084,-0.0114,-0.0101,-0.01,-0.0094,-0.0111,-0.0115,-0.0101,-0.0104,-0.0129,-0.0132,-0.0134,-0.0123,-0.0155,-0.0156,-0.0156,-0.0132,-0.0131,-0.013,0,0,0,0,0,0,-0.0119,-0.0115,-0.0086,-0.0099,-0.0096,-0.0099,-0.0091,-0.0093,-0.0091,-0.0109,-0.0115,-0.0099,-0.013,-0.0134,-0.0132,-0.0124,-0.0156,-0.0157,-0.0133,-0.0132,-0.013,-0.0086,0,0,0,0,0,0,-0.012,-0.0115,-0.0108,-0.0099,-0.0095,-0.0064,-0.009,-0.0091,-0.0087,-0.009,-0.0109,-0.0115,-0.0132,-0.0131,-0.0133,-0.0126,-0.0157,-0.0134,-0.0132,-0.0131,-0.0089,-0.0084,-0.0079,0,0,0,0,0,-0.0121,-0.0108,-0.0108,-0.0104,-0.0086,-0.0063,-0.0061,-0.0069,-0.0085,-0.0075,-0.0089,-0.0114,-0.0122,-0.0131,-0.0133,-0.0125,-0.0135,-0.0133,-0.0131,-0.0091,-0.0085,-0.0079,0,0,0,0,0,0,-0.0125,-0.0109,-0.0109,-0.0093,-0.0077,-0.0069,-0.006,-0.0064,-0.0064,-0.0073,-0.0097,-0.0103,-0.0099,-0.0112,-0.0122,-0.0112,-0.0134,-0.0132,-0.0103,-0.0097,-0.0092,-0.0112,-0.0157,0,0,0,0,0,-0.012,-0.0105,-0.009,-0.0076,-0.0067,-0.0061,-0.0054,-0.0056,-0.0056,-0.0058,-0.0071,-0.0084,-0.0087,-0.0094,-0.0098,-0.0088,-0.0121,-0.0086,-0.0081,-0.0076,-0.0093,-0.0132,-0.0133,-0.0123,-0.0123,-0.0123,0,0,-0.0117,-0.0107,-0.0099,-0.0075,-0.0066,-0.0046,-0.0061,-0.0045,-0.0037,-0.0062,-0.0058,-0.0064,-0.0079,-0.0071,-0.0071,-0.0085,-0.0091,-0.0074,-0.007,-0.0089,-0.013,-0.0132,-0.0133,-0.0121,-0.0122,-0.0122,0,0,-0.0106,-0.0094,-0.0078,-0.0061,-0.0041,-0.0033,-0.0028,-0.0014,-0.0018,-0.0003,-0.0024,-0.0028,-0.0027,-0.0042,-0.0048,-0.0017,-0.006,-0.0013,-0.0009,-0.0046,-0.0048,-0.005,-0.0072,-0.0077,-0.0014,-0.0014,-0.0014,0,-0.0107,-0.0084,-0.007,-0.0049,-0.0037,-0.0027,-0.0009,0.0,0.001,0.0003,0.0001,-0.001,-0.0017,-0.0026,-0.0013,-0.0008,-0.0034,-0.003,-0.0041,-0.0045,-0.0048,-0.007,-0.0076,-0.0012,-0.0012,-0.0012,-0.0013,0,-0.0085,-0.0063,-0.005,-0.0022,-0.0004,0.0016,0.0031,0.004,0.0038,0.0037,0.0032,0.0027,0.001,0.0019,0.0013,-0.0006,-0.0017,-0.0028,-0.0061,-0.0046,-0.007,-0.0077,-0.0008,-0.0009,-0.001,-0.0011,0,0,-0.0104,-0.0046,-0.0044,-0.0027,0.001,0.0023,0.0043,0.0054,0.0047,0.0058,0.0045,0.005,0.0034,0.0025,0.0017,-0.0009,-0.0034,-0.0026,-0.0029,-0.0056,-0.0112,-0.0048,-0.005,-0.0052,-0.0054,-0.0055,-0.0112,0,-0.0095,-0.0053,-0.0027,0.0008,0.0029,0.0047,0.0059,0.0067,0.007,0.0064,0.005,0.0043,0.004,0.0033,0.0008,-0.0023,-0.0054,-0.0018,-0.0116,-0.0119,-0.0072,-0.0056,-0.0012,-0.0054,-0.0119,-0.0121,-0.0122,0,-0.0093,-0.0062,-0.0024,0.0014,0.0023,0.0041,0.0049,0.0063,0.006,0.0058,0.0045,0.0036,0.0014,0.0007,-0.0059,-0.0036,-0.0077,-0.0104,-0.0107,-0.0076,-0.0069,-0.0083,-0.0065,-0.0046,-0.0133,-0.0132,-0.0131,0,-0.0125,-0.0069,-0.0041,-0.0024,0.0025,0.0031,0.0047,0.0052,0.005,0.0049,0.0046,0.0018,0.0009,-0.005,-0.0076,-0.0082,-0.0148,-0.0167,-0.0154,-0.015,-0.0146,-0.0139,-0.0132,-0.0238,-0.0238,-0.0238,-0.0237,0,-0.0133,-0.0113,-0.0055,-0.0038,-0.0025,0.0012,0.0011,0.0024,0.0027,0.002,0.0034,0.0028,-0.0009,-0.0035,-0.0083,-0.0117,-0.0156,-0.0157,-0.0163,-0.0124,-0.0114,-0.0125,-0.0151,-0.024,-0.0239,-0.0239,-0.0238,0,-0.0168,-0.0127,-0.0096,-0.0046,-0.0037,-0.0031,-0.0008,-0.0014,0.0005,-0.0001,-0.0001,0.0022,0.0015,-0.0011,-0.0083,-0.0111,-0.0156,-0.0172,-0.0104,-0.01,-0.0063,-0.0089,-0.011,-0.0145,-0.0182,-0.0181,-0.018,0,-0.0179,-0.0162,-0.0115,-0.0108,-0.0085,-0.007,-0.0069,-0.0039,-0.004,-0.0007,-0.0014,0.0011,0.0025,-0.001,-0.0028,-0.0079,-0.011,-0.0086,-0.0092,-0.005,-0.0085,-0.0079,-0.0109,-0.0073,-0.0071,-0.0069,-0.0068,0,-0.0202,-0.0186,-0.016,-0.0151,-0.0142,-0.0127,-0.0114,-0.0112,-0.0078,-0.006,-0.0029,-0.0005,0.0023,0.005,0.0041,-0.0006,-0.0062,-0.0057,-0.005,-0.0025,0.0012,-0.0027,-0.0035,-0.0055,-0.0056,-0.0057,-0.0058,-0.0059,-0.0231,-0.0224,-0.0202,-0.0195,-0.0186,-0.0176,-0.0156,-0.0131,-0.0106,-0.0035,-0.0034,0.0062,0.0119,0.0142,0.0076,0.0088,0.0023,0.0068,0.0023,0.002,0.0021,0.0066,0.0071,0.007,0.007,0.0069,0.0069,0,-0.0272,-0.0258,-0.0251,-0.0233,-0.0231,-0.0214,-0.0182,-0.0139,-0.0084,0.0008,0.0061,0.022,0.0255,0.0273,0.0301,0.0216,0.0125,0.0156,0.0151,0.0102,0.0115,0.0159,0.023,0.023,0.023,0.023,0.023,0.023,-0.0291,-0.0298,-0.0286,-0.0281,-0.0263,-0.0226,-0.0194,-0.0112,-0.002,0.0163,0.0317,0.042,0.0603,0.0507,0.0453,0.035,0.0232,0.0209,0.0127,0.0139,0.0128,0.0116,0.0156,0.0224,0.0224,0.0148,0.0147,0.0146]}],[{"header":{"parameterUnit":"m.s-1","parameterCategory":2,"la1":30.2991,"la2":30.254,"lo1":-89.0895,"lo2":-89.0444,"dy":0.0017,"dx":0.0017,"nx":28,"ny":28,"refTime":"2025-08-14T21:00:00:Z","depth":"2","parameterNumber":2,"parameterNumberName":"U-component_of_CURRENTS"},"data":[0,0,0,0,0,0,0,0,0,0,0,0,0,0,0,0,0,0,0,0,0,0,0,0,0,0,0,0,0,0,0,0,0,0,0,0,0,0,0,0,0,0,0,0,0,0,0,0,0,0,0,0,0,0,0,0,0,0,0.2035,0.2035,0,0.2014,0.2014,0.2013,0.1979,0.1978,0.1978,0.1978,0.1971,0.1971,0.1971,0,0,0,0,0,0,0,0,0,0,0,0,0,0.2034,0.2034,0.2035,0.2035,0.2035,0.2014,0.2014,0.2013,0.1979,0.1978,0.1978,0.1978,0.1971,0.1971,0.1971,0,0,0,0,0,0,0,0,0,0,0,0,0,0.2023,0.2034,0.2035,0.2017,0.2016,0.2014,0.2014,0.2013,0.1979,0.1978,0.1978,0.1977,0.1971,0.1971,0.1972,0.1985,0,0,0.1972,0.1973,0,0,0,0,0,0,0,0,0.2024,0.2023,0.202,0.2018,0.2017,0.2001,0.2011,0.2005,0.1979,0.199,0.1978,0.1977,0.1985,0.1984,0.1977,0.1985,0.1984,0.1972,0.1973,0.1973,0.1973,0,0,0,0,0,0,0,0.2025,0.2024,0.2024,0.202,0.2018,0.2007,0.2005,0.201,0.1989,0.1989,0.1987,0.1989,0.1983,0.1977,0.1977,0.1984,0.1972,0.1973,0.1973,0.1973,0.208,0.2083,0,0,0,0,0,0,0.2034,0.2024,0.2024,0.2023,0.2022,0.2008,0.2005,0.2004,0.1989,0.1986,0.199,0.1988,0.1977,0.1976,0.1976,0.2019,0.1973,0.1973,0.1973,0.2078,0.2081,0.2084,0,0,0,0,0,0,0.2034,0.2034,0.2025,0.2026,0.2024,0.2009,0.2008,0.2004,0.2,0.199,0.1987,0.199,0.1976,0.1976,0.1999,0.2017,0.1973,0.1973,0.2074,0.2079,0.2082,0.2087,0,0,0,0,0,0,0.2034,0.2034,0.2042,0.2026,0.2025,0.2032,0.2009,0.2004,0.2004,0.2001,0.199,0.1988,0.1976,0.1999,0.2,0.2017,0.1974,0.2071,0.2076,0.2081,0.2083,0.209,0.2096,0,0,0,0,0,0.2034,0.204,0.2043,0.2043,0.2035,0.2033,0.2031,0.2016,0.2005,0.2008,0.2011,0.1988,0.2032,0.2001,0.2001,0.2019,0.2069,0.2075,0.2081,0.208,0.2089,0.2096,0,0,0,0,0,0,0.2041,0.2037,0.204,0.2044,0.2046,0.2028,0.2032,0.2022,0.2024,0.2023,0.201,0.201,0.2043,0.2043,0.2009,0.2074,0.2052,0.2059,0.2052,0.206,0.2067,0.2065,0.1974,0,0,0,0,0,0.205,0.2054,0.2052,0.2058,0.2062,0.2051,0.205,0.2039,0.2037,0.2036,0.2026,0.2039,0.2069,0.2072,0.2092,0.2114,0.2119,0.2135,0.2142,0.2147,0.2152,0.2201,0.2211,0.2104,0.2103,0.2103,0,0,0.2052,0.2055,0.2055,0.2061,0.206,0.206,0.2047,0.2048,0.2048,0.2038,0.2037,0.2059,0.2086,0.2116,0.2132,0.2112,0.2178,0.2155,0.2158,0.2161,0.2208,0.2218,0.2227,0.2108,0.2107,0.2106,0,0,0.205,0.2065,0.2064,0.207,0.2076,0.2074,0.2077,0.2064,0.2063,0.2072,0.2082,0.2119,0.2131,0.216,0.2179,0.2241,0.2219,0.2252,0.2267,0.2313,0.2322,0.2329,0.2324,0.2331,0.2245,0.2245,0.2245,0,0.2053,0.2049,0.2064,0.2066,0.2069,0.2081,0.2075,0.2085,0.2079,0.2092,0.2075,0.2141,0.2155,0.222,0.2243,0.2252,0.2258,0.2221,0.2318,0.2326,0.2333,0.2326,0.2334,0.2246,0.2246,0.2246,0.2246,0,0.204,0.2045,0.2048,0.2055,0.2067,0.2066,0.2084,0.2098,0.2099,0.2107,0.2161,0.2187,0.2223,0.2248,0.2257,0.2331,0.2311,0.2322,0.2284,0.2343,0.2333,0.2341,0.2248,0.2247,0.2247,0.2247,0,0,0.2003,0.2031,0.203,0.2035,0.2057,0.2061,0.209,0.2117,0.2131,0.2157,0.2175,0.2253,0.2267,0.2294,0.2319,0.2364,0.2412,0.2361,0.2363,0.2331,0.248,0.2207,0.2189,0.2436,0.2439,0.244,0.244,0,0.1979,0.1981,0.2002,0.2007,0.2006,0.2045,0.2068,0.2106,0.2128,0.2152,0.2221,0.2252,0.2285,0.2296,0.2354,0.2395,0.2438,0.2409,0.245,0.245,0.2181,0.2191,0.2076,0.2044,0.2447,0.2449,0.245,0,0.1937,0.1949,0.1947,0.1981,0.1985,0.1997,0.2039,0.2061,0.2129,0.2148,0.2209,0.2243,0.232,0.2332,0.2437,0.2413,0.2455,0.2489,0.249,0.2239,0.2192,0.206,0.2042,0.2462,0.2461,0.246,0.2459,0,0.188,0.1904,0.1903,0.1911,0.1956,0.1972,0.2,0.2059,0.2071,0.2143,0.2144,0.2249,0.2266,0.2363,0.2406,0.2434,0.249,0.2535,0.2338,0.2318,0.2227,0.2193,0.2629,0.2629,0.2629,0.2629,0.2629,0,0.1828,0.1824,0.1879,0.1875,0.188,0.1932,0.194,0.1987,0.2033,0.2029,0.2132,0.2117,0.2278,0.231,0.2391,0.2331,0.2475,0.2324,0.2298,0.2218,0.2185,0.2565,0.2558,0.2629,0.2629,0.2629,0.2629,0,0.1742,0.1783,0.1778,0.183,0.1846,0.1846,0.1885,0.1883,0.1948,0.1938,0.1955,0.2025,0.2041,0.2153,0.2269,0.2245,0.2267,0.2229,0.2076,0.2027,0.2081,0.2075,0.2015,0.2005,0.1997,0.199,0.1984,0,0.1686,0.1681,0.1724,0.1717,0.1732,0.175,0.1749,0.1827,0.1812,0.1845,0.1813,0.184,0.1812,0.1827,0.183,0.1864,0.2048,0.1735,0.1759,0.2035,0.2018,0.2025,0.203,0.1669,0.1661,0.1655,0.1649,0,0.1565,0.1591,0.1584,0.1581,0.158,0.159,0.1594,0.1578,0.1638,0.1633,0.1585,0.1572,0.1537,0.1461,0.1442,0.1467,0.1709,0.159,0.1972,0.1782,0.1692,0.168,0.1701,0.1592,0.1598,0.1602,0.1605,0.1607,0.1444,0.1414,0.1413,0.1405,0.1427,0.1415,0.1388,0.1387,0.1359,0.1323,0.135,0.1231,0.1239,0.1055,0.1107,0.1137,0.1239,0.1263,0.1293,0.1328,0.1227,0.1121,0.0895,0.0897,0.0898,0.09,0.0901,0,0.1251,0.1256,0.1235,0.1228,0.1222,0.1301,0.1269,0.1214,0.1153,0.1094,0.1061,0.0791,0.0752,0.0794,0.074,0.0754,0.0891,0.0771,0.0986,0.1036,0.1082,0.0982,0.058,0.058,0.058,0.058,0,0,0.1131,0.1052,0.1061,0.1019,0.1065,0.1039,0.1027,0.0955,0.0878,0.0684,0.0546,0.0584,0.0592,0.0478,0.0572,0.0575,0.0814,0.0564,0.0804,0.1097,0.1144,0.1323,0.1213,0,0,0,0,0]},{"header":{"parameterUnit":"m.s-1","parameterCategory":2,"la1":30.2991,"la2":30.254,"lo1":-89.0895,"lo2":-89.0444,"dy":0.0017,"dx":0.0017,"nx":28,"ny":28,"refTime":"2025-08-14T21:00:00:Z","depth":"2","parameterNumber":3,"parameterNumberName":"V-component_of_CURRENTS"},"data":[0,0,0,0,0,0,0,0,0,0,0,0,0,0,0,0,0,0,0,0,0,0,0,0,0,0,0,0,0,0,0,0,0,0,0,0,0,0,0,0,0,0,0,0,0,0,0,0,0,0,0,0,0,0,0,0,0,0,0.0026,0.0026,0,0.0033,0.0033,0.0033,0.0025,0.0024,0.0024,0.0023,0.0028,0.0029,0.0029,0,0,0,0,0,0,0,0,0,0,0,0,0,0.0035,0.0035,0.0026,0.0026,0.0026,0.0033,0.0033,0.0033,0.0025,0.0024,0.0024,0.0023,0.0028,0.0029,0.003,0,0,0,0,0,0,0,0,0,0,0,0,0,0.0038,0.0035,0.0026,0.0021,0.002,0.0033,0.0033,0.0033,0.0025,0.0024,0.0024,0.0023,0.0028,0.0029,0.003,0.0052,0,0,0.0033,0.0033,0,0,0,0,0,0,0,0,0.0038,0.0038,0.0022,0.0021,0.002,0.0025,0.0038,0.0039,0.0025,0.0026,0.0023,0.0022,0.0026,0.0027,0.0034,0.0052,0.0052,0.0033,0.0033,0.0034,0.0034,0,0,0,0,0,0,0,0.0038,0.0038,0.0031,0.0021,0.0021,0.0028,0.0027,0.0038,0.0032,0.0026,0.0025,0.0022,0.0026,0.0033,0.0034,0.0052,0.0033,0.0033,0.0034,0.0034,0.0086,0.0087,0,0,0,0,0,0,0.0031,0.0038,0.0031,0.0031,0.0024,0.0028,0.0027,0.0026,0.0032,0.0032,0.0022,0.0021,0.0032,0.0033,0.0034,0.0062,0.0034,0.0034,0.0035,0.0085,0.0086,0.0087,0,0,0,0,0,0,0.0031,0.0031,0.0031,0.0032,0.0032,0.0028,0.0027,0.0027,0.0024,0.0029,0.0029,0.0018,0.0031,0.0032,0.0048,0.0062,0.0035,0.0036,0.0084,0.0086,0.0087,0.0118,0,0,0,0,0,0,0.0032,0.0031,0.0027,0.0032,0.0032,0.0037,0.0028,0.0027,0.0022,0.0021,0.0026,0.0026,0.0031,0.0047,0.0049,0.0063,0.0037,0.0083,0.0085,0.0086,0.0116,0.012,0.0124,0,0,0,0,0,0.0032,0.0035,0.0026,0.0025,0.0027,0.0038,0.0039,0.0035,0.0023,0.0028,0.0034,0.0025,0.0058,0.0049,0.0051,0.0065,0.0083,0.0085,0.0086,0.0114,0.0119,0.0123,0,0,0,0,0,0,0.0036,0.0034,0.0025,0.0025,0.0028,0.0035,0.0036,0.0031,0.004,0.0036,0.0038,0.004,0.0061,0.0059,0.0048,0.0085,0.0068,0.007,0.0088,0.0093,0.0097,0.0102,0.0037,0,0,0,0,0,0.0034,0.0035,0.0034,0.0034,0.0033,0.0032,0.0033,0.0031,0.0038,0.004,0.0046,0.0054,0.0073,0.0077,0.0092,0.0111,0.0116,0.0121,0.0125,0.0128,0.0134,0.0157,0.0164,0.0093,0.0093,0.0093,0,0,0.0036,0.0034,0.0034,0.0034,0.0034,0.0049,0.0032,0.0034,0.005,0.0041,0.0063,0.0069,0.0082,0.0108,0.0116,0.0106,0.0152,0.013,0.0133,0.0138,0.016,0.0167,0.0173,0.0094,0.0094,0.0094,0,0,0.0053,0.0037,0.0049,0.0051,0.005,0.0053,0.0051,0.0057,0.006,0.008,0.0083,0.0098,0.0117,0.0137,0.0148,0.0181,0.0173,0.0178,0.02,0.0223,0.0229,0.0234,0.0251,0.0258,0.0177,0.0177,0.0177,0,0.0053,0.0069,0.0054,0.0069,0.0077,0.0056,0.0079,0.0082,0.0094,0.011,0.0089,0.0137,0.0136,0.0185,0.019,0.019,0.0197,0.0181,0.0228,0.0233,0.0238,0.0254,0.0261,0.0179,0.0179,0.0179,0.0178,0,0.009,0.0096,0.0102,0.0115,0.0123,0.0135,0.0137,0.0146,0.0141,0.0151,0.0186,0.019,0.0216,0.0217,0.021,0.0251,0.0242,0.0232,0.0216,0.0247,0.0262,0.0269,0.0181,0.0181,0.018,0.018,0,0,0.0113,0.0127,0.0126,0.0149,0.0149,0.0168,0.0186,0.0215,0.0245,0.0238,0.0284,0.0294,0.0282,0.0293,0.0288,0.0299,0.033,0.0274,0.0275,0.0291,0.0377,0.0325,0.0328,0.0324,0.0326,0.0327,0.0373,0,0.0148,0.0187,0.0183,0.0229,0.0257,0.0246,0.0276,0.0294,0.0302,0.0339,0.0333,0.0363,0.0315,0.0326,0.033,0.0341,0.0348,0.0318,0.0344,0.0345,0.0295,0.0334,0.03,0.0335,0.038,0.0381,0.0382,0,0.0194,0.0217,0.0258,0.0307,0.0318,0.0332,0.0383,0.0404,0.0434,0.044,0.045,0.0446,0.0463,0.041,0.0431,0.0412,0.0391,0.0387,0.0389,0.0335,0.0306,0.031,0.0345,0.0393,0.0392,0.0391,0.039,0,0.0241,0.0278,0.0314,0.0325,0.0366,0.0382,0.0398,0.043,0.0462,0.0489,0.0517,0.0531,0.0545,0.0525,0.0494,0.0465,0.0521,0.0483,0.042,0.0417,0.039,0.0381,0.0493,0.0493,0.0493,0.0493,0.0493,0,0.0299,0.0332,0.0332,0.0355,0.0416,0.0418,0.0476,0.0495,0.0525,0.0572,0.0555,0.0609,0.0571,0.0592,0.0543,0.0509,0.0556,0.0435,0.0429,0.0399,0.039,0.0438,0.0431,0.0494,0.0494,0.0494,0.0493,0,0.0362,0.0353,0.0405,0.043,0.0437,0.0476,0.0508,0.0556,0.0565,0.0622,0.0627,0.0678,0.0699,0.0667,0.0663,0.0577,0.055,0.0522,0.0483,0.0469,0.0415,0.0409,0.0454,0.0452,0.0451,0.045,0.045,0,0.0413,0.0433,0.0451,0.0477,0.0483,0.0522,0.0555,0.0568,0.0607,0.0672,0.0713,0.0756,0.0798,0.0778,0.065,0.0563,0.0574,0.0459,0.0382,0.0424,0.0414,0.041,0.0405,0.0368,0.0367,0.0365,0.0365,0,0.0511,0.0487,0.0522,0.0553,0.0578,0.0624,0.0652,0.0693,0.0711,0.0761,0.0841,0.088,0.0831,0.0744,0.0608,0.0539,0.0463,0.0429,0.0521,0.0366,0.0342,0.0332,0.0331,0.0354,0.0355,0.0356,0.0357,0.0357,0.0577,0.061,0.0614,0.0654,0.0675,0.0709,0.0758,0.0791,0.0858,0.0931,0.0956,0.0984,0.085,0.0665,0.0533,0.037,0.0386,0.0317,0.0321,0.0327,0.0292,0.0265,0.0257,0.0257,0.0258,0.0258,0.0258,0,0.0668,0.0673,0.0718,0.0756,0.0795,0.0758,0.0819,0.0889,0.0967,0.1008,0.1067,0.0924,0.0801,0.0651,0.036,0.0206,0.0202,0.0188,0.0206,0.0217,0.0226,0.0187,0.0124,0.0123,0.0123,0.0122,0,0,0.0718,0.0765,0.0775,0.0849,0.0855,0.0895,0.0924,0.1016,0.1069,0.1129,0.1088,0.1096,0.0846,0.062,0.0427,0.0268,0.0289,0.0249,0.0369,0.0425,0.0437,0.0307,0.0258,0,0,0,0,0]}],[{"header":{"parameterUnit":"m.s-1","parameterCategory":2,"la1":30.2991,"la2":30.254,"lo1":-89.0895,"lo2":-89.0444,"dy":0.0017,"dx":0.0017,"nx":28,"ny":28,"refTime":"2025-08-14T21:00:00:Z","depth":"4","parameterNumber":2,"parameterNumberName":"U-component_of_CURRENTS"},"data":[0,0,0,0,0,0,0,0,0,0,0,0,0,0,0,0,0,0,0,0,0,0,0,0,0,0,0,0,0,0,0,0,0,0,0,0,0,0,0,0,0,0,0,0,0,0,0,0,0,0,0,0,0,0,0,0,0,0,-0.0139,-0.0139,0,-0.0061,-0.006,-0.0059,-0.0011,-0.001,-0.001,-0.001,0.0017,0.0017,0.0018,0,0,0,0,0,0,0,0,0,0,0,0,0,-0.0178,-0.0178,-0.0139,-0.0139,-0.0138,-0.0062,-0.006,-0.0059,-0.0011,-0.001,-0.001,-0.001,0.0016,0.0017,0.0018,0,0,0,0,0,0,0,0,0,0,0,0,0,-0.0136,-0.0178,-0.014,-0.0105,-0.0101,-0.0062,-0.006,-0.0059,-0.0011,-0.001,-0.001,-0.001,0.0016,0.0017,0.0018,0.0018,0,0,0.002,0.0021,0,0,0,0,0,0,0,0,-0.0138,-0.0134,-0.0111,-0.0108,-0.0103,-0.0047,-0.0064,-0.0036,-0.0011,-0.0044,-0.001,-0.001,-0.001,-0.0007,0.0009,0.002,0.0021,0.002,0.0021,0.0021,0.0022,0,0,0,0,0,0,0,-0.0141,-0.0137,-0.0107,-0.011,-0.0105,-0.007,-0.0065,-0.0058,-0.0029,-0.0041,-0.0037,-0.0031,-0.0008,0.0009,0.001,0.0021,0.002,0.0021,0.0022,0.0022,0.0105,0.0106,0,0,0,0,0,0,-0.0158,-0.014,-0.011,-0.0105,-0.0122,-0.007,-0.0064,-0.0064,-0.0028,-0.0022,-0.0031,-0.0029,0.0007,0.0009,0.0011,0.0107,0.0021,0.0022,0.0023,0.0103,0.0105,0.0107,0,0,0,0,0,0,-0.0159,-0.0156,-0.0113,-0.0121,-0.0114,-0.0071,-0.0071,-0.0063,-0.0008,-0.002,-0.0015,0.0019,0.0007,0.001,0.0046,0.0104,0.0022,0.0023,0.0101,0.0104,0.0106,0.0237,0,0,0,0,0,0,-0.016,-0.0157,-0.0147,-0.0123,-0.0114,-0.0071,-0.0071,-0.0061,-0.0007,-0.0002,0.0023,0.0024,0.0008,0.0045,0.0047,0.0104,0.0024,0.0099,0.0102,0.0105,0.0231,0.0244,0.0255,0,0,0,0,0,-0.0162,-0.0149,-0.0148,-0.0143,-0.0108,-0.007,-0.0061,-0.0029,-0.0005,0.0022,0.0043,0.0025,0.0067,0.0048,0.0049,0.0108,0.0097,0.0101,0.0105,0.0225,0.0241,0.0255,0,0,0,0,0,0,-0.0153,-0.0142,-0.014,-0.0123,-0.0093,-0.0062,-0.0027,-0.0003,0.0039,0.0056,0.0047,0.005,0.01,0.0082,0.0061,0.0137,0.0079,0.0084,0.017,0.0185,0.0197,0.0211,0.0025,0,0,0,0,0,-0.0152,-0.0141,-0.0123,-0.0104,-0.0085,-0.0046,-0.0019,0.0005,0.0037,0.0059,0.009,0.0106,0.0111,0.0132,0.0133,0.0182,0.0115,0.0218,0.023,0.0241,0.0252,0.0197,0.0205,0.0119,0.0119,0.0119,0,0,-0.0141,-0.0134,-0.0125,-0.0101,-0.0069,-0.003,-0.0027,0.0029,0.0074,0.0052,0.0147,0.0151,0.013,0.018,0.0203,0.018,0.0225,0.0245,0.0255,0.026,0.0202,0.021,0.0217,0.0122,0.0121,0.0121,0,0,-0.0116,-0.0105,-0.0086,-0.0056,-0.0011,0.0011,0.0036,0.01,0.0143,0.0219,0.0206,0.0244,0.0291,0.028,0.0275,0.0354,0.0284,0.037,0.0459,0.0407,0.0413,0.0418,0.032,0.0315,0.0387,0.0387,0.0387,0,-0.0101,-0.0083,-0.0069,-0.0035,-0.0001,0.0035,0.0081,0.0126,0.0203,0.0238,0.0267,0.0334,0.0332,0.0351,0.0399,0.0383,0.033,0.0409,0.0423,0.0426,0.0429,0.0327,0.032,0.0394,0.0393,0.0392,0.0392,0,-0.007,-0.0037,-0.0012,0.0032,0.0072,0.0122,0.0173,0.0239,0.031,0.0353,0.043,0.0443,0.0478,0.0494,0.0487,0.0516,0.0461,0.0435,0.0386,0.0445,0.0334,0.0324,0.0403,0.0401,0.0399,0.0397,0,0,-0.0076,-0.0009,0.0007,0.0036,0.0115,0.0146,0.0231,0.0299,0.0345,0.0454,0.051,0.0579,0.061,0.0606,0.0599,0.0588,0.0571,0.0556,0.055,0.0459,0.043,0.0447,0.0436,0.056,0.056,0.056,0.0335,0,-0.005,0.0008,0.0045,0.0124,0.0162,0.0224,0.0284,0.0355,0.0429,0.0494,0.054,0.0589,0.0641,0.0665,0.0677,0.0586,0.0557,0.0632,0.0385,0.0377,0.0387,0.0431,0.0559,0.0327,0.0324,0.0322,0.0321,0,-0.0029,0.0005,0.0079,0.0152,0.0176,0.0231,0.0321,0.0384,0.0466,0.0525,0.0608,0.0635,0.067,0.0687,0.0606,0.066,0.0576,0.0504,0.0492,0.046,0.0379,0.0259,0.0302,0.0304,0.0305,0.0306,0.0307,0,-0.0051,0.0032,0.0087,0.012,0.0208,0.0259,0.0313,0.0402,0.0434,0.0541,0.0563,0.0629,0.0618,0.0587,0.0485,0.0559,0.032,0.0376,0.0292,0.0288,0.0276,0.0273,0.0291,0.0291,0.0292,0.0292,0.0293,0,-0.004,0.0007,0.0081,0.0117,0.0166,0.0249,0.0308,0.0377,0.0435,0.0461,0.0579,0.0573,0.06,0.0485,0.0439,0.0314,0.0271,0.0313,0.0251,0.0332,0.0338,0.0266,0.0266,0.0284,0.0286,0.0287,0.0289,0,-0.005,-0.0003,0.0055,0.0143,0.0162,0.0209,0.0273,0.0298,0.038,0.0406,0.0438,0.0481,0.0426,0.035,0.0212,0.0211,0.0093,0.0025,0.0044,-0.0018,0.0119,0.0129,0.0017,0.0017,0.0016,0.0015,0.0015,0,-0.004,-0.0011,0.0058,0.0061,0.0108,0.0166,0.0184,0.027,0.03,0.0339,0.0336,0.0299,0.0333,0.0108,0.0085,-0.0036,-0.0036,-0.0125,0.014,0.0151,0.01,0.0111,0.0121,0.0014,0.0014,0.0013,0.0013,0,-0.0026,-0.0001,0.0035,0.0034,0.0056,0.0071,0.0124,0.0129,0.0226,0.0257,0.0255,0.0249,0.0157,0.0128,-0.003,-0.01,-0.004,-0.013,-0.0123,0.0126,0.0145,0.0098,0.0108,0.0011,0.0011,0.0011,0.0012,0,-0.0015,-0.0008,0.0015,0.0012,0.0007,0.0006,0.0039,0.0077,0.0109,0.0194,0.0156,0.0142,0.0132,0.008,-0.0064,-0.0114,-0.0009,0.002,0.0022,0.0024,0.0147,0.0179,0.0007,0,0,0,0,0,0.0001,-0.0016,-0.0025,-0.0026,-0.0044,-0.0042,0.0002,0.0044,0.0119,0.0114,0.0158,0.0105,0.0062,0.0029,-0.0003,-0.0018,-0.003,-0.0053,0.0,-0.0002,0.0,0.0154,0,0,0,0,0,0,-0.0001,-0.0004,-0.0024,-0.0065,-0.0086,-0.009,-0.0061,-0.0012,0.0018,0.0083,0.0046,0.0095,0.0027,0.0054,-0.0016,-0.0023,0.0014,-0.0065,-0.0065,-0.0004,-0.0002,0.0001,0.016,0,0,0,0,0]},{"header":{"parameterUnit":"m.s-1","parameterCategory":2,"la1":30.2991,"la2":30.254,"lo1":-89.0895,"lo2":-89.0444,"dy":0.0017,"dx":0.0017,"nx":28,"ny":28,"refTime":"2025-08-14T21:00:00:Z","depth":"4","parameterNumber":3,"parameterNumberName":"V-component_of_CURRENTS"},"data":[0,0,0,0,0,0,0,0,0,0,0,0,0,0,0,0,0,0,0,0,0,0,0,0,0,0,0,0,0,0,0,0,0,0,0,0,0,0,0,0,0,0,0,0,0,0,0,0,0,0,0,0,0,0,0,0,0,0,0.0335,0.0335,0,0.0279,0.0278,0.0277,0.0262,0.0263,0.0264,0.0265,0.0195,0.0192,0.0189,0,0,0,0,0,0,0,0,0,0,0,0,0,0.034,0.0339,0.0335,0.0335,0.0335,0.0279,0.0278,0.0276,0.0262,0.0263,0.0264,0.0265,0.0196,0.0192,0.0189,0,0,0,0,0,0,0,0,0,0,0,0,0,0.0309,0.0339,0.0335,0.0326,0.0326,0.0279,0.0278,0.0276,0.0261,0.0263,0.0264,0.0266,0.0197,0.0193,0.0189,0.0133,0,0,0.0176,0.0174,0,0,0,0,0,0,0,0,0.0311,0.0308,0.0328,0.0327,0.0326,0.0285,0.0254,0.023,0.0261,0.0278,0.0265,0.0267,0.0227,0.0221,0.0197,0.0129,0.0126,0.0175,0.0173,0.0171,0.017,0,0,0,0,0,0,0,0.0313,0.031,0.0306,0.0328,0.0327,0.0295,0.0292,0.0248,0.0239,0.0277,0.0277,0.0282,0.0226,0.0201,0.0195,0.0125,0.0175,0.0172,0.0169,0.0168,0.0024,0.0023,0,0,0,0,0,0,0.0338,0.0313,0.0308,0.0305,0.033,0.0295,0.0291,0.0291,0.024,0.0236,0.0281,0.0282,0.0207,0.02,0.0193,0.0145,0.0171,0.0167,0.0165,0.0025,0.0024,0.0022,0,0,0,0,0,0,0.0338,0.0338,0.031,0.0313,0.0309,0.0294,0.0293,0.0289,0.0272,0.0245,0.0239,0.0271,0.0208,0.0199,0.0156,0.0141,0.0165,0.0161,0.0027,0.0025,0.0023,0.0035,0,0,0,0,0,0,0.0338,0.0338,0.0346,0.0315,0.031,0.0285,0.0292,0.0287,0.0276,0.0277,0.0233,0.0228,0.0209,0.0162,0.0152,0.0136,0.0158,0.0028,0.0026,0.0024,0.0036,0.0034,0.0032,0,0,0,0,0,0.0338,0.0342,0.0346,0.0346,0.0321,0.0285,0.0278,0.0268,0.0275,0.0259,0.0233,0.023,0.014,0.0158,0.0146,0.0128,0.003,0.0027,0.0024,0.0037,0.0034,0.0032,0,0,0,0,0,0,0.0344,0.034,0.0345,0.0347,0.0323,0.0286,0.0281,0.0267,0.0231,0.0237,0.0209,0.02,0.0155,0.0135,0.0156,0.0078,0.0085,0.0079,0.0099,0.0096,0.0094,0.0124,0.0155,0,0,0,0,0,0.0352,0.0356,0.0338,0.0338,0.0333,0.0305,0.0293,0.028,0.0248,0.0235,0.0206,0.0172,0.0128,0.0111,0.0069,0.0025,0.0016,0.0006,0.0004,0.0002,0.0016,-0.0036,-0.0041,0.0013,0.0013,0.0013,0,0,0.036,0.0354,0.036,0.034,0.0325,0.0302,0.0299,0.0279,0.0255,0.0231,0.0193,0.0158,0.0113,0.0065,0.0044,0.0052,-0.0015,-0.0002,-0.0003,0.0013,-0.004,-0.0045,-0.0049,0.0011,0.0011,0.0011,0,0,0.0354,0.0367,0.0362,0.0344,0.0325,0.0304,0.0301,0.0264,0.0249,0.0207,0.018,0.0138,0.0082,0.004,0.0014,-0.0031,-0.0031,-0.0041,-0.0023,-0.0075,-0.008,-0.0083,-0.008,-0.0084,-0.0036,-0.0036,-0.0036,0,0.0364,0.0353,0.0351,0.0331,0.0325,0.0307,0.0289,0.0259,0.021,0.0199,0.0203,0.0109,0.0069,0.0003,-0.0005,-0.0035,-0.0039,-0.0006,-0.0076,-0.008,-0.0085,-0.0081,-0.0085,-0.0036,-0.0036,-0.0036,-0.0036,0,0.0342,0.034,0.0334,0.0312,0.0296,0.0279,0.0252,0.0231,0.0222,0.0198,0.0146,0.0088,0.0051,0.0012,-0.0004,-0.0061,-0.0044,-0.0076,-0.0062,-0.0089,-0.0084,-0.0088,-0.0036,-0.0036,-0.0036,-0.0036,0,0,0.0355,0.0327,0.033,0.0324,0.0291,0.0278,0.0245,0.0214,0.0213,0.0162,0.0142,0.0062,0.0063,0.0032,-0.0009,-0.006,-0.0093,-0.0065,-0.0068,-0.0046,-0.0159,-0.0131,-0.0133,-0.0132,-0.0134,-0.0135,-0.0135,0,0.0341,0.0314,0.0302,0.0284,0.027,0.0257,0.0235,0.0207,0.0193,0.0168,0.0108,0.0085,0.0061,0.006,-0.0001,-0.0089,-0.0107,-0.0087,-0.0148,-0.0149,-0.011,-0.014,-0.0139,-0.0138,-0.0139,-0.014,-0.0141,0,0.0323,0.0309,0.0298,0.0283,0.0281,0.0284,0.0278,0.0257,0.0218,0.0211,0.0182,0.0148,0.0073,0.0061,-0.0063,-0.0043,-0.0073,-0.0136,-0.0138,-0.0117,-0.0131,-0.0114,-0.0149,-0.0148,-0.0148,-0.0147,-0.0147,0,0.0333,0.031,0.0311,0.0306,0.0285,0.0305,0.0312,0.0291,0.0277,0.0272,0.0264,0.0181,0.0138,0.0061,-0.0036,-0.0042,-0.0171,-0.0203,-0.0195,-0.0192,-0.0218,-0.0214,-0.0252,-0.0252,-0.0252,-0.0252,-0.0252,0,0.0318,0.0324,0.0338,0.0342,0.0363,0.0355,0.0392,0.0382,0.0363,0.0342,0.0322,0.0257,0.0133,0.0042,-0.0025,-0.012,-0.0149,-0.0183,-0.02,-0.0211,-0.0206,-0.022,-0.0216,-0.0252,-0.0252,-0.0252,-0.0252,0,0.0321,0.0327,0.0333,0.035,0.0372,0.0403,0.0445,0.0453,0.0459,0.0427,0.043,0.0298,0.018,0.0083,-0.0071,-0.0106,-0.0196,-0.02,-0.016,-0.0176,-0.0174,-0.017,-0.0204,-0.0203,-0.0203,-0.0202,-0.0202,0,0.0314,0.0321,0.0356,0.0375,0.0404,0.0462,0.0491,0.051,0.0512,0.0427,0.0389,0.0277,0.0196,0.002,-0.0098,-0.0178,-0.0189,-0.0179,-0.0213,-0.0161,-0.0175,-0.0171,-0.0168,-0.0201,-0.0201,-0.02,-0.02,0,0.03,0.033,0.034,0.0392,0.0447,0.0486,0.054,0.0532,0.0528,0.0507,0.0377,0.0283,0.0139,-0.0012,-0.0041,-0.0121,-0.0173,-0.0173,-0.0176,-0.0207,-0.0158,-0.0171,-0.0168,-0.0198,-0.0198,-0.0199,-0.0199,0,0.0303,0.0317,0.0357,0.0408,0.0459,0.0506,0.0529,0.0531,0.0532,0.0448,0.0373,0.0237,0.0129,0.0016,-0.0052,-0.0087,-0.0114,-0.0099,-0.0106,-0.0109,-0.009,-0.0014,-0.0021,0,0,0,0,0,0.0302,0.0338,0.0366,0.0434,0.048,0.0527,0.0546,0.0558,0.0538,0.0465,0.0437,0.0315,0.0169,0.0056,0.0026,-0.0051,-0.0116,-0.0086,-0.0099,-0.0186,-0.0189,-0.0182,0,0,0,0,0,0,0.0306,0.0343,0.0371,0.0461,0.0506,0.0578,0.0591,0.0568,0.0536,0.0477,0.0385,0.0343,0.0185,0.0202,0.0035,0.0011,0.0008,-0.0163,-0.0162,-0.0185,-0.0187,-0.0189,-0.0183,0,0,0,0,0]}]]